Tracking 29892 objects as of 21-Nov-2024
HD Live streaming from Space Station
objects crossing your sky now

STARLINK-11269

Track STARLINK-11269 now!
10-day predictions
STARLINK-11269 is classified as:


NORAD ID: 60995
Int'l Code: 2024-158F
Perigee: 366.1 km
Apogee: 367.7 km
Inclination: 53.2 °
Period: 91.7 minutes
Semi major axis: 6737 km
RCS: Unknown
Launch date: September 5, 2024
Source: United States (US)
Launch site: AIR FORCE EASTERN TEST RANGE (AFETR)
Your satellite tracking list
Your tracking list is empty




NASA's NSSDC Master Catalog

Two Line Element Set (TLE):
1 60995U 24158F   24325.74983749  .00003949  00000-0  37455-4 0  9999
2 60995  53.1578  97.8572 0001192 170.5374 189.5667 15.69699590 13148
Source of the keplerian elements: AFSPC